Sauk Centre, MN

2:38 PM CST on February 27, 2017 (GMT -0600)
Sauk Centre

Weather History for KD39 - June, 2014

Change the Weather History Date:

Thursday, June 12, 2014

  Actual Average (KGHW) Record (KGHW)
Temperature  
Mean Temperature 57 °F -  
Max Temperature 64 °F 77 °F 98 °F (1988)
Min Temperature 50 °F 52 °F 23 °F (2000)
Degree Days  
Heating Degree Days 8    
Growing Degree Days 7 (Base 50)    
Moisture  
Dew Point 45 °F    
Average Humidity 69    
Maximum Humidity 89    
Minimum Humidity 41    
Precipitation  
Precipitation 0.42 in - - ()
Sea Level Pressure  
Sea Level Pressure 29.88 in    
Wind  
Wind Speed 17 mph (WNW)    
Max Wind Speed 25 mph    
Max Gust Speed 33 mph    
Visibility 10 miles    
Events      
Averages and records for this station are not official NWS values.
T = Trace of Precipitation, MM = Missing Value Source: NWS Daily Summary

Daily Weather History Graph

Daily Weather History Graph

Search for Another Location

Airport or City:

Trip Planner

Search our weather history database for the weather conditions in past years. The results will help you decide how hot, cold, wet, or windy it might be!

Date:

Astronomy

Jun. 12, 2014 Rise Set
Actual Time 5:29 AM CDT 9:09 PM CDT
Civil Twilight 4:51 AM CDT 9:47 PM CDT
Nautical Twilight 4:00 AM CDT 10:38 PM CDT
Astronomical Twilight 2:52 AM CDT 11:47 PM CDT
Moon 8:38 PM CDT (6/12) 5:16 AM CDT (6/12)
Length of Visible Light 16h 56m
Length of Day
15h 40m
Full, 100% of the Moon is Illuminated
Jun 12
Full
Jun 12
Full
Jun 19
Last Quarter
Jun 27
New
Jul 5
First Quarter

Hourly Weather History & Observations

Time (CDT) Temp. Dew Point Humidity Pressure Visibility Wind Dir Wind Speed Gust Speed Precip Events Conditions
12:13 AM 58.3 °F 55.0 °F 89% 29.67 in 10.0 mi NW 17.3 mph 24.2 mph N/A   Overcast
12:33 AM 57.6 °F 54.3 °F 89% 29.67 in 10.0 mi NW 17.3 mph 24.2 mph N/A   Mostly Cloudy
12:52 AM 57.4 °F 54.1 °F 89% 29.69 in 10.0 mi WNW 17.3 mph 25.3 mph N/A   Mostly Cloudy
1:13 AM 57.4 °F 53.2 °F 86% 29.70 in 10.0 mi WNW 19.6 mph 28.8 mph N/A   Overcast
1:33 AM 55.9 °F 51.6 °F 85% 29.70 in 10.0 mi NW 24.2 mph 28.8 mph N/A   Overcast
1:52 AM 55.8 °F 50.5 °F 83% 29.72 in 10.0 mi NW 19.6 mph 33.4 mph N/A   Overcast
2:13 AM 55.6 °F 50.2 °F 82% 29.74 in 10.0 mi NW 20.7 mph 28.8 mph N/A   Overcast
2:32 AM 55.4 °F 49.8 °F 81% 29.75 in 10.0 mi NW 20.7 mph 26.5 mph N/A   Overcast
2:53 AM 55.6 °F 49.3 °F 79% 29.77 in 10.0 mi NW 19.6 mph 27.6 mph N/A   Overcast
3:13 AM 55.0 °F 48.0 °F 77% 29.77 in 10.0 mi NW 17.3 mph 24.2 mph N/A   Overcast
3:32 AM 54.9 °F 47.3 °F 76% 29.77 in 10.0 mi NW 19.6 mph 25.3 mph N/A   Overcast
3:53 AM 54.5 °F 47.3 °F 77% 29.78 in 10.0 mi WNW 17.3 mph 24.2 mph N/A   Overcast
4:13 AM 53.8 °F 48.6 °F 82% 29.79 in 10.0 mi WNW 15.0 mph - N/A   Overcast
4:32 AM 53.6 °F 48.6 °F 83% 29.80 in 10.0 mi WNW 13.8 mph 19.6 mph N/A   Scattered Clouds
4:53 AM 52.9 °F 48.4 °F 85% 29.79 in 10.0 mi WNW 13.8 mph - N/A   Mostly Cloudy
5:13 AM 52.7 °F 48.6 °F 86% 29.78 in 10.0 mi WNW 15.0 mph 23.0 mph N/A   Mostly Cloudy
5:32 AM 53.1 °F 48.2 °F 84% 29.79 in 10.0 mi WNW 21.9 mph 27.6 mph N/A   Overcast
5:53 AM 53.2 °F 47.5 °F 81% 29.79 in 10.0 mi WNW 17.3 mph 25.3 mph N/A   Overcast
6:13 AM 52.9 °F 47.7 °F 82% 29.80 in 10.0 mi WNW 17.3 mph 26.5 mph N/A   Overcast
6:32 AM 52.7 °F 47.3 °F 82% 29.82 in 10.0 mi WNW 15.0 mph 21.9 mph N/A   Overcast
6:53 AM 52.7 °F 47.3 °F 82% 29.84 in 10.0 mi WNW 17.3 mph 20.7 mph N/A   Overcast
7:13 AM 52.7 °F 46.0 °F 78% 29.84 in 10.0 mi WNW 15.0 mph 25.3 mph N/A   Overcast
7:33 AM 52.7 °F 46.4 °F 79% 29.86 in 10.0 mi WNW 15.0 mph 19.6 mph N/A   Overcast
7:53 AM 52.0 °F 44.8 °F 76% 29.87 in 10.0 mi WNW 17.3 mph 25.3 mph N/A   Overcast
8:13 AM 52.9 °F 44.8 °F 74% 29.87 in 10.0 mi WNW 19.6 mph 27.6 mph N/A   Scattered Clouds
8:33 AM 52.3 °F 45.3 °F 77% 29.88 in 10.0 mi WNW 17.3 mph 25.3 mph N/A   Mostly Cloudy
9:33 AM 52.0 °F 44.2 °F 75% 29.89 in 10.0 mi WNW 20.7 mph 29.9 mph N/A   Overcast
9:53 AM 52.7 °F 44.8 °F 74% 29.89 in 10.0 mi WNW 21.9 mph 31.1 mph N/A   Overcast
10:12 AM 52.7 °F 45.3 °F 76% 29.90 in 10.0 mi WNW 25.3 mph 31.1 mph N/A   Overcast
10:33 AM 52.7 °F 45.5 °F 76% 29.91 in 10.0 mi WNW 21.9 mph 28.8 mph N/A   Overcast
10:53 AM 52.7 °F 46.0 °F 78% 29.91 in 10.0 mi WNW 18.4 mph 28.8 mph N/A   Overcast
11:12 AM 53.1 °F 45.5 °F 75% 29.91 in 10.0 mi WNW 21.9 mph 25.3 mph N/A   Overcast
11:33 AM 53.2 °F 44.2 °F 72% 29.92 in 10.0 mi WNW 17.3 mph 31.1 mph N/A   Overcast
11:53 AM 53.2 °F 45.9 °F 76% 29.93 in 10.0 mi WNW 18.4 mph 24.2 mph N/A   Overcast
12:12 PM 53.4 °F 44.8 °F 73% 29.93 in 10.0 mi WNW 21.9 mph 29.9 mph N/A   Overcast
12:33 PM 54.0 °F 44.4 °F 70% 29.93 in 10.0 mi West 19.6 mph 28.8 mph N/A   Overcast
12:53 PM 53.8 °F 44.6 °F 71% 29.94 in 10.0 mi WNW 18.4 mph 25.3 mph N/A   Overcast
1:12 PM 54.0 °F 44.4 °F 70% 29.94 in 10.0 mi WNW 19.6 mph 25.3 mph N/A   Overcast
1:33 PM 55.0 °F 44.6 °F 68% 29.94 in 10.0 mi WNW 24.2 mph 31.1 mph N/A   Overcast
1:53 PM 55.2 °F 44.4 °F 67% 29.94 in 10.0 mi NW 15.0 mph 31.1 mph N/A   Overcast
2:12 PM 55.9 °F 44.6 °F 66% 29.94 in 10.0 mi WNW 24.2 mph 32.2 mph N/A   Overcast
2:33 PM 56.3 °F 45.7 °F 68% 29.94 in 10.0 mi NW 23.0 mph 27.6 mph N/A   Overcast
2:53 PM 56.8 °F 44.6 °F 64% 29.95 in 10.0 mi NW 19.6 mph 29.9 mph N/A   Overcast
3:12 PM 57.9 °F 45.1 °F 62% 29.95 in 10.0 mi NW 19.6 mph 28.8 mph N/A   Overcast
3:53 PM 60.4 °F 45.3 °F 57% 29.95 in 10.0 mi NW 19.6 mph 24.2 mph N/A   Mostly Cloudy
4:12 PM 60.8 °F 45.1 °F 56% 29.94 in 10.0 mi NW 19.6 mph 26.5 mph N/A   Mostly Cloudy
4:33 PM 61.0 °F 45.0 °F 56% 29.94 in 10.0 mi NW 19.6 mph 25.3 mph N/A   Mostly Cloudy
4:52 PM 61.9 °F 43.5 °F 51% 29.94 in 10.0 mi NNW 18.4 mph 26.5 mph N/A   Scattered Clouds
5:13 PM 62.8 °F 43.9 °F 50% 29.94 in 10.0 mi NNW 15.0 mph 25.3 mph N/A   Mostly Cloudy
5:33 PM 62.6 °F 42.8 °F 48% 29.94 in 10.0 mi NNW 21.9 mph 26.5 mph N/A   Scattered Clouds
5:52 PM 63.9 °F 43.7 °F 48% 29.94 in 10.0 mi NW 23.0 mph 28.8 mph N/A   Scattered Clouds
6:13 PM 64.4 °F 43.0 °F 46% 29.95 in 10.0 mi NW 18.4 mph 24.2 mph N/A   Scattered Clouds
6:33 PM 64.2 °F 42.8 °F 46% 29.95 in 10.0 mi NW 16.1 mph 25.3 mph N/A   Scattered Clouds
6:52 PM 63.5 °F 41.7 °F 45% 29.95 in 10.0 mi NW 19.6 mph 23.0 mph N/A   Clear
7:13 PM 63.7 °F 40.8 °F 43% 29.96 in 10.0 mi NW 12.7 mph 21.9 mph N/A   Clear
7:33 PM 63.5 °F 40.3 °F 43% 29.96 in 10.0 mi NW 13.8 mph 20.7 mph N/A   Clear
7:52 PM 62.8 °F 38.7 °F 41% 29.97 in 10.0 mi NW 16.1 mph 20.7 mph N/A   Clear
8:13 PM 62.1 °F 37.8 °F 41% 29.97 in 10.0 mi NW 11.5 mph 18.4 mph N/A   Clear
8:33 PM 61.0 °F 37.9 °F 42% 29.97 in 10.0 mi NW 10.4 mph - N/A   Clear
8:52 PM 59.5 °F 39.2 °F 47% 29.98 in 10.0 mi NW 8.1 mph - N/A   Clear
9:13 PM 57.0 °F 39.6 °F 52% 29.98 in 10.0 mi NW 5.8 mph - N/A   Clear
9:33 PM 55.9 °F 40.6 °F 56% 29.99 in 10.0 mi NW 5.8 mph - N/A   Clear
9:52 PM 55.0 °F 43.0 °F 64% 29.99 in 10.0 mi West 3.5 mph - N/A   Clear
10:33 PM 51.4 °F 44.6 °F 77% 30.00 in 10.0 mi West 3.5 mph - N/A   Clear
10:53 PM 51.4 °F 44.1 °F 76% 30.00 in 10.0 mi West 4.6 mph - N/A   Clear
11:13 PM 51.4 °F 44.2 °F 76% 30.00 in 10.0 mi Calm Calm - N/A   Clear
11:32 PM 50.7 °F 43.7 °F 77% 30.00 in 10.0 mi West 4.6 mph - N/A   Clear
11:53 PM 50.2 °F 43.7 °F 78% 30.01 in 10.0 mi West 4.6 mph - N/A   Clear